{"data":{"norad_id":43706,"intl_designator":"2018-093A","name":"BEIDOU-3 M17 (C36)","alt_names":[],"object_type":"PAYLOAD","status":"ACTIVE","operator":null,"country":"PRC","launch_date":"2018-11-18","launch_site_code":"XICLF","launch_vehicle":null,"mission":null,"orbit_class":"UNKNOWN","rcs_meters":null,"size_class":null,"mass_kg":null,"dimensions":null,"purposes":["nav"],"wikipedia_slug":null,"has_3d_model":false,"image_url":null,"decayed_at":null,"tle_current":{"epoch":"2026-05-24T04:58:52.677696Z","epoch_age_seconds":143573,"freshness":"FRESH","line1":"1 43706U 18093A   26144.20755414  .00000050  00000+0  00000+0 0  9999","line2":"2 43706  54.1673 183.1096 0009837 291.2944 109.0036  1.86228425 51096","mean_motion":1.86228425,"eccentricity":0.0009837,"inclination_deg":54.1673,"raan_deg":183.1096,"arg_perigee_deg":291.2944,"mean_anomaly_deg":109.0036,"bstar":0,"rev_number":5109,"period_min":773.24393416311,"perigee_km":21500.857233755,"apogee_km":21555.760375231,"semimajor_km":27906.445804493,"source":"CELESTRAK","updated_at":"2026-05-25T13:38:24.220917Z"}}}